Time,TemperatureF,DewpointF,PressureIn,WindDirection,WindDirectionDegrees,WindSpeedMPH,WindSpeedGustMPH,Humidity,HourlyPrecipIn,Conditions,Clouds,dailyrainin,SolarRadiationWatts/m^2,SoftwareType,DateUTC
2013-11-06 00:02:00,51.0,51.0,-100.00,South,174,4.0,7.0,99,0.04,,,0.62,0.000000,,2013-11-06 08:02:00,
2013-11-06 00:42:00,51.0,51.0,-100.00,West,273,1.0,5.0,99,0.00,,,0.61,0.000000,,2013-11-06 08:42:00,
2013-11-06 00:52:00,51.0,51.0,-100.00,West,273,1.0,5.0,99,0.00,,,0.61,0.000000,,2013-11-06 08:52:00,
2013-11-06 01:02:00,51.0,51.0,-100.00,West,273,1.0,5.0,99,0.00,,,0.61,0.000000,,2013-11-06 09:02:00,
2013-11-06 01:43:00,51.0,51.0,-100.00,SSE,155,1.0,5.0,99,0.00,,,0.59,0.000000,,2013-11-06 09:43:00,
2013-11-06 01:53:00,51.0,51.0,-100.00,SSE,155,1.0,5.0,99,0.00,,,0.59,0.000000,,2013-11-06 09:53:00,
2013-11-06 02:03:00,51.0,51.0,-100.00,SSE,155,1.0,5.0,99,0.00,,,0.59,0.000000,,2013-11-06 10:03:00,
2013-11-06 02:42:00,52.0,52.0,-100.00,WSW,244,2.0,6.0,99,0.01,,,0.57,0.000000,,2013-11-06 10:42:00,
2013-11-06 02:53:00,52.0,52.0,-100.00,WSW,244,2.0,6.0,99,0.01,,,0.57,0.000000,,2013-11-06 10:53:00,
2013-11-06 03:02:00,52.0,52.0,-100.00,WSW,244,2.0,6.0,99,0.01,,,0.57,0.000000,,2013-11-06 11:02:00,
2013-11-06 03:42:00,51.0,51.0,-100.00,South,175,3.0,5.0,99,0.01,,,0.56,0.000000,,2013-11-06 11:42:00,
2013-11-06 03:52:00,51.0,51.0,-100.00,South,175,3.0,5.0,99,0.01,,,0.56,0.000000,,2013-11-06 11:52:00,
2013-11-06 04:02:00,51.0,51.0,-100.00,South,175,3.0,5.0,99,0.01,,,0.56,0.000000,,2013-11-06 12:02:00,
2013-11-06 04:42:00,51.0,51.0,-100.00,South,170,3.0,6.0,99,0.00,,,-99.99,0.000000,,2013-11-06 12:42:00,
2013-11-06 04:52:00,51.0,51.0,-100.00,South,170,3.0,6.0,99,0.00,,,-99.99,0.000000,,2013-11-06 12:52:00,
2013-11-06 05:01:00,51.0,51.0,-100.00,South,170,3.0,6.0,99,0.00,,,-99.99,0.000000,,2013-11-06 13:01:00,
2013-11-06 05:42:00,51.0,51.0,-100.00,South,170,3.0,7.0,99,0.00,,,0.44,0.000000,,2013-11-06 13:42:00,
2013-11-06 05:52:00,51.0,51.0,-100.00,South,170,3.0,7.0,99,0.00,,,0.44,0.000000,,2013-11-06 13:52:00,
2013-11-06 06:02:00,51.0,51.0,-100.00,South,170,3.0,7.0,99,0.00,,,0.44,0.000000,,2013-11-06 14:02:00,
2013-11-06 06:42:00,52.0,52.0,-100.00,South,174,4.0,5.0,99,0.00,,,0.39,0.000000,,2013-11-06 14:42:00,
2013-11-06 06:52:00,52.0,52.0,-100.00,South,174,4.0,5.0,99,0.00,,,0.39,0.000000,,2013-11-06 14:52:00,
2013-11-06 07:01:00,52.0,52.0,-100.00,South,174,4.0,5.0,99,0.00,,,0.39,0.000000,,2013-11-06 15:01:00,
2013-11-06 07:43:00,51.0,51.0,-100.00,South,169,2.0,6.0,99,0.00,,,0.35,0.000000,,2013-11-06 15:43:00,
2013-11-06 07:53:00,51.0,51.0,-100.00,South,169,2.0,6.0,99,0.00,,,0.35,0.000000,,2013-11-06 15:53:00,
2013-11-06 08:03:00,51.0,51.0,-100.00,South,169,2.0,6.0,99,0.00,,,0.35,0.000000,,2013-11-06 16:03:00,
2013-11-06 08:43:00,52.0,52.0,-100.00,South,171,2.0,4.0,99,0.00,,,0.32,13.000000,,2013-11-06 16:43:00,
2013-11-06 08:53:00,52.0,52.0,-100.00,South,171,2.0,4.0,99,0.00,,,0.32,13.000000,,2013-11-06 16:53:00,
2013-11-06 09:02:00,52.0,52.0,-100.00,South,171,2.0,4.0,99,0.00,,,0.32,13.000000,,2013-11-06 17:02:00,
2013-11-06 09:43:00,53.0,53.0,-100.00,South,175,5.0,7.0,100,0.01,,,0.31,64.000000,,2013-11-06 17:43:00,
2013-11-06 09:52:00,53.0,53.0,-100.00,South,175,5.0,7.0,100,0.01,,,0.31,64.000000,,2013-11-06 17:52:00,
2013-11-06 10:01:00,53.0,53.0,-100.00,South,175,5.0,7.0,100,0.01,,,0.31,64.000000,,2013-11-06 18:01:00,
2013-11-06 10:42:00,54.0,54.0,-100.00,South,177,6.0,8.0,100,0.00,,,-99.99,142.000000,,2013-11-06 18:42:00,
2013-11-06 10:52:00,54.0,54.0,-100.00,South,177,6.0,8.0,100,0.00,,,-99.99,142.000000,,2013-11-06 18:52:00,
2013-11-06 11:01:00,54.0,54.0,-100.00,South,177,6.0,8.0,100,0.00,,,-99.99,142.000000,,2013-11-06 19:01:00,
2013-11-06 11:42:00,55.0,55.0,-100.00,South,178,7.0,9.0,100,0.00,,,0.30,205.000000,,2013-11-06 19:42:00,
2013-11-06 11:52:00,55.0,55.0,-100.00,South,178,7.0,9.0,100,0.00,,,0.30,205.000000,,2013-11-06 19:52:00,
2013-11-06 12:01:00,55.0,55.0,-100.00,South,178,7.0,9.0,100,0.00,,,0.30,205.000000,,2013-11-06 20:01:00,
2013-11-06 12:42:00,58.0,57.0,-100.00,South,174,2.0,7.0,97,0.00,,,0.29,300.000000,,2013-11-06 20:42:00,
2013-11-06 12:52:00,58.0,57.0,-100.00,South,174,2.0,7.0,97,0.00,,,0.29,300.000000,,2013-11-06 20:52:00,
2013-11-06 13:02:00,58.0,57.0,-100.00,South,174,2.0,7.0,97,0.00,,,0.29,300.000000,,2013-11-06 21:02:00,
2013-11-06 13:44:00,57.0,57.0,-100.00,NNW,342,2.0,5.0,99,0.00,,,0.28,109.000000,,2013-11-06 21:44:00,
2013-11-06 13:54:00,57.0,57.0,-100.00,NNW,342,2.0,5.0,99,0.00,,,0.28,109.000000,,2013-11-06 21:54:00,
2013-11-06 14:04:00,57.0,57.0,-100.00,NNW,342,2.0,5.0,99,0.00,,,0.28,109.000000,,2013-11-06 22:04:00,
2013-11-06 14:43:00,57.0,57.0,-100.00,NNW,332,1.0,3.0,99,0.00,,,0.27,109.000000,,2013-11-06 22:43:00,
2013-11-06 14:53:00,57.0,57.0,-100.00,NNW,332,1.0,3.0,99,0.00,,,0.27,109.000000,,2013-11-06 22:53:00,
2013-11-06 15:02:00,57.0,57.0,-100.00,NNW,332,1.0,3.0,99,0.00,,,0.27,109.000000,,2013-11-06 23:02:00,
2013-11-06 15:42:00,56.0,56.0,-100.00,West,272,0.0,1.0,99,0.00,,,0.27,40.000000,,2013-11-06 23:42:00,
2013-11-06 15:53:00,56.0,56.0,-100.00,West,272,0.0,1.0,99,0.00,,,0.27,40.000000,,2013-11-06 23:53:00,
2013-11-06 16:02:00,56.0,56.0,-100.00,West,272,0.0,1.0,99,0.00,,,0.27,40.000000,,2013-11-07 00:02:00,
2013-11-06 16:42:00,56.0,56.0,-100.00,South,171,3.0,4.0,99,0.00,,,0.26,48.000000,,2013-11-07 00:42:00,
2013-11-06 16:52:00,56.0,56.0,-100.00,South,171,3.0,4.0,99,0.00,,,0.26,48.000000,,2013-11-07 00:52:00,
2013-11-06 17:01:00,56.0,56.0,-100.00,South,171,3.0,4.0,99,0.00,,,0.26,48.000000,,2013-11-07 01:01:00,
2013-11-06 17:42:00,55.0,55.0,-100.00,South,172,3.0,5.0,99,0.00,,,0.24,12.000000,,2013-11-07 01:42:00,
2013-11-06 17:52:00,55.0,55.0,-100.00,South,172,3.0,5.0,99,0.00,,,0.24,12.000000,,2013-11-07 01:52:00,
2013-11-06 18:01:00,55.0,55.0,-100.00,South,172,3.0,5.0,99,0.00,,,0.24,12.000000,,2013-11-07 02:01:00,
2013-11-06 18:53:00,55.0,55.0,-100.00,North,352,1.0,6.0,100,0.00,,,0.20,0.000000,,2013-11-07 02:53:00,
2013-11-06 19:02:00,55.0,55.0,-100.00,North,352,1.0,6.0,100,0.00,,,0.20,0.000000,,2013-11-07 03:02:00,
2013-11-06 19:44:00,54.0,54.0,-100.00,SW,215,0.0,0.0,100,0.00,,,0.16,0.000000,,2013-11-07 03:44:00,
2013-11-06 19:55:00,54.0,54.0,-100.00,SW,215,0.0,0.0,100,0.00,,,0.16,0.000000,,2013-11-07 03:55:00,
2013-11-06 20:04:00,54.0,54.0,-100.00,SW,215,0.0,0.0,100,0.00,,,0.16,0.000000,,2013-11-07 04:04:00,
2013-11-06 20:43:00,54.0,54.0,-100.00,NNW,329,2.0,5.0,100,0.00,,,0.12,0.000000,,2013-11-07 04:43:00,
2013-11-06 20:53:00,54.0,54.0,-100.00,NNW,329,2.0,5.0,100,0.00,,,0.12,0.000000,,2013-11-07 04:53:00,
2013-11-06 21:03:00,54.0,54.0,-100.00,NNW,329,2.0,5.0,100,0.00,,,0.12,0.000000,,2013-11-07 05:03:00,
2013-11-06 21:44:00,53.0,53.0,-100.00,NNW,345,1.0,5.0,100,0.00,,,0.09,0.000000,,2013-11-07 05:44:00,
2013-11-06 21:54:00,53.0,53.0,-100.00,NNW,345,1.0,5.0,100,0.00,,,0.09,0.000000,,2013-11-07 05:54:00,
2013-11-06 22:03:00,53.0,53.0,-100.00,NNW,345,1.0,5.0,100,0.00,,,0.09,0.000000,,2013-11-07 06:03:00,
2013-11-06 22:42:00,53.0,53.0,-100.00,South,174,1.0,3.0,99,0.00,,,0.07,0.000000,,2013-11-07 06:42:00,
2013-11-06 22:52:00,53.0,53.0,-100.00,South,174,1.0,3.0,99,0.00,,,0.07,0.000000,,2013-11-07 06:52:00,
2013-11-06 23:02:00,53.0,53.0,-100.00,South,174,1.0,3.0,99,0.00,,,0.07,0.000000,,2013-11-07 07:02:00,
2013-11-06 23:42:00,53.0,53.0,-100.00,WSW,256,2.0,5.0,99,0.00,,,0.03,0.000000,,2013-11-07 07:42:00,
2013-11-06 23:52:00,53.0,53.0,-100.00,WSW,256,2.0,5.0,99,0.00,,,0.03,0.000000,,2013-11-07 07:52:00,